星链-32646 (STARLINK-32646)

导读

STARLINK-32646是美国太空探索技术公司于2024年12月13日发射的星链低轨通信卫星,属于星链巨型星座扩容的一部分。卫星运行在近地轨道,配备相控阵天线与氪离子推进系统,支持Ku/Ka频段通信,可依托星链星座为全球提供低延迟高速互联网接入,覆盖偏远地区、海上航运及航空通信场景,同时具备潜在军事通信应用价值。该卫星的持续部署进一步扩充了星链星座规模,但也加剧了近地轨道资源竞争,增加了太空碰撞风险与天文观测干扰隐患。

Basic Information
目录编号:
62307
目录名称:
STARLINK-32646
国际标识:
2024-239G
轨道中心:
EARTH
卫星名称:
星链-32646
卫星全名:
星链-32646 (STARLINK-32646)
卫星状态:
在轨 (已飞行630 天)
发射日期:
2024-12-13 UTC
国别 :
美国 (US)
星等 :
--
Orbit Information
数据来源 国际轨道数据
星历时间: 2026-09-03T19:53:42+0800
15小时前
查看轨道信息
半长轴: 6840.844km
偏心率: 0.0000987
轨道倾角: 53.158°
近地点辐角 87.764°
升交点赤经 73.344°
平近点角 272.348°
近地点: 462.031km
远地点: 463.383km
周期: 93.848分钟
每日圈数: 15.343989
Detailed Information
固有亮度:
5
最大亮度:
2.5
卫星平台:
Starlink V1.0
覆盖范围:
全球
运营商:
太空探索技术公司
运营商所在国:
美国
制造商(研发单位):
太空探索技术公司
制造商所在国:
美国
使用方式:
暂无
Satellite Introduction
Starlink 计划是 SpaceX 推出的全球卫星互联网项目,通过发射低轨道卫星,为全球尤其是偏远地区提供高速、低延迟的互联网服务。自 2019 年起,Starlink 已部署数千颗卫星,旨在缩小全球数字鸿沟,推动互联网普及。该项目还为军事、航空等行业提供通信支持,带来广泛经济效益。
2D Orbit Map
3D Orbit Map
Orbit Altitude Analysis Chart
Orbit Inclination Analysis Chart
Orbit Comprehensive Analysis Chart
View Comprehensive Chart
Conjunction Data List
Event ID Objects TCA Miss Dist (km) Collision Risk Probability Collision Risk Index (CRI) Action
CDM_260904-075505-360806-230721
2026-09-04T
07:55:51+0000
0.766 km
远距离
4.033452E-5 中风险 0.67
CDM_260904-115005-360806-230721
2026-09-04T
11:50:18+0000
2.096 km
极远距离
1.654804E-6 低风险 0.39
CDM_260904-132405-360806-230721
2026-09-04T
13:24:05+0000
2.694 km
极远距离
1.036735E-6 低风险 0.35
CDM_260903-125705-301906-230721
2026-09-03T
12:57:59+0000
2.715 km
极远距离
1.000191E-6 低风险 0.35
CDM_260903-160905-339606-230721
2026-09-03T
16:09:05+0000
2.479 km
极远距离
7.586825E-7 极低风险 0.33
CDM_260903-130505-328806-230721
2026-09-03T
13:05:33+0000
2.757 km
极远距离
5.253197E-7 极低风险 0.29